| time (UTC) | temp F | wind direction | speed knots | gust knots | rain 1hr in | rain 24hr in | rain mn in | humidity % | barometer mb |
| 20260903220317 | 98 | 162 | 2.6 | 6.1 | 0.00 | 0.00 | 0.00 | 58 | 1016.2 |
| 20260903215318 | 99 | 182 | 2.6 | 6.1 | 0.00 | 0.00 | 0.00 | 56 | 1016.3 |
| 20260903214313 | 101 | 155 | 2.6 | 6.1 | 0.00 | 0.00 | 0.00 | 54 | 1016.3 |
| 20260903213337 | 102 | 70 | 3.5 | 9.6 | 0.00 | 0.00 | 0.00 | 53 | 1016.2 |
| 20260903212318 | 102 | 197 | 2.6 | 6.1 | 0.00 | 0.00 | 0.00 | 53 | 1016.1 |
| 20260903211310 | 101 | 140 | 2.6 | 6.1 | 0.00 | 0.00 | 0.00 | 55 | 1016.2 |
| 20260903210311 | 102 | 99 | 3.5 | 7.8 | 0.00 | 0.00 | 0.00 | 54 | 1016.1 |
| 20260903205326 | 102 | 109 | 3.5 | 7.8 | 0.00 | 0.00 | 0.00 | 54 | 1016.1 |
| 20260903204326 | 102 | 103 | 3.5 | 7.0 | 0.00 | 0.00 | 0.00 | 54 | 1016.2 |
| 20260903203326 | 102 | 126 | 3.5 | 6.1 | 0.00 | 0.00 | 0.00 | 53 | 1016.3 |
| 20260903202338 | 102 | 126 | 2.6 | 7.0 | 0.00 | 0.00 | 0.00 | 53 | 1016.5 |
| 20260903201316 | 102 | 182 | 2.6 | 4.3 | 0.00 | 0.00 | 0.00 | 54 | 1016.6 |
| 20260903200312 | 102 | 132 | 2.6 | 5.2 | 0.00 | 0.00 | 0.00 | 53 | 1016.6 |
| 20260903195331 | 102 | 160 | 2.6 | 6.1 | 0.00 | 0.00 | 0.00 | 56 | 1016.7 |
| 20260903194324 | 101 | 92 | 0.9 | 7.0 | 0.00 | 0.00 | 0.00 | 56 | 1016.9 |
| 20260903193317 | 103 | 52 | 2.6 | 8.7 | 0.00 | 0.00 | 0.00 | 54 | 1016.9 |
| 20260903192317 | 103 | 101 | 3.5 | 7.0 | 0.00 | 0.00 | 0.00 | 54 | 1017.1 |
| 20260903191313 | 103 | 121 | 3.5 | 9.6 | 0.00 | 0.00 | 0.00 | 53 | 1017.1 |
| 20260903190334 | 103 | 157 | 2.6 | 7.0 | 0.00 | 0.00 | 0.00 | 54 | 1017.1 |
| 20260903185325 | 103 | 84 | 3.5 | 7.8 | 0.00 | 0.00 | 0.00 | 52 | 1017.2 |
| 20260903184326 | 104 | 54 | 2.6 | 4.3 | 0.00 | 0.00 | 0.00 | 52 | 1017.4 |
| 20260903183319 | 103 | 98 | 2.6 | 7.0 | 0.00 | 0.00 | 0.00 | 51 | 1017.5 |
| 20260903182313 | 102 | 128 | 2.6 | 7.0 | 0.00 | 0.00 | 0.00 | 52 | 1017.6 |
| 20260903181322 | 102 | 128 | 3.5 | 7.8 | 0.00 | 0.00 | 0.00 | 54 | 1017.6 |
| 20260903180330 | 101 | 119 | 2.6 | 7.0 | 0.00 | 0.00 | 0.00 | 56 | 1017.7 |
| 20260903175347 | 101 | 134 | 2.6 | 6.1 | 0.00 | 0.00 | 0.00 | 55 | 1017.8 |
| 20260903174328 | 103 | 214 | 1.7 | 5.2 | 0.00 | 0.00 | 0.00 | 56 | 1017.9 |
| 20260903173322 | 102 | 178 | 2.6 | 7.0 | 0.00 | 0.00 | 0.00 | 57 | 1018.0 |
| 20260903172316 | 102 | 107 | 0.9 | 7.0 | 0.00 | 0.00 | 0.00 | 54 | 1018.0 |
| 20260903171318 | 102 | 169 | 1.7 | 6.1 | 0.00 | 0.00 | 0.00 | 56 | 1018.1 |
| 20260903170310 | 103 | 109 | 1.7 | 5.2 | 0.00 | 0.00 | 0.00 | 57 | 1018.2 |
| 20260903165330 | 102 | 109 | 3.5 | 6.1 | 0.00 | 0.00 | 0.00 | 56 | 1018.4 |
| 20260903164320 | 102 | 36 | 2.6 | 6.1 | 0.00 | 0.00 | 0.00 | 57 | 1018.4 |
| 20260903163309 | 101 | 100 | 1.7 | 4.3 | 0.00 | 0.00 | 0.00 | 60 | 1018.5 |
| 20260903162326 | 101 | 53 | 1.7 | 5.2 | 0.00 | 0.00 | 0.00 | 60 | 1018.6 |
| 20260903161344 | 100 | 69 | 1.7 | 6.1 | 0.00 | 0.00 | 0.00 | 60 | 1018.7 |
| 20260903160313 | 99 | 165 | 2.6 | 4.3 | 0.00 | 0.00 | 0.00 | 62 | 1018.7 |
| 20260903155309 | 97 | 250 | 1.7 | 4.3 | 0.00 | 0.00 | 0.00 | 64 | 1018.7 |
| 20260903154324 | 97 | 194 | 0.9 | 6.1 | 0.00 | 0.00 | 0.00 | 63 | 1018.7 |
| 20260903153323 | 97 | 238 | 1.7 | 4.3 | 0.00 | 0.00 | 0.00 | 65 | 1018.7 |
| 20260903152311 | 95 | 155 | 1.7 | 4.3 | 0.00 | 0.00 | 0.00 | 67 | 1018.7 |
| 20260903151331 | 95 | 324 | 0.9 | 5.2 | 0.00 | 0.00 | 0.00 | 66 | 1018.7 |
| 20260903150324 | 94 | 214 | 2.6 | 3.5 | 0.00 | 0.00 | 0.00 | 67 | 1018.7 |
| 20260903145321 | 94 | 300 | 1.7 | 4.3 | 0.00 | 0.00 | 0.00 | 68 | 1018.7 |
| 20260903144317 | 93 | 267 | 2.6 | 4.3 | 0.00 | 0.00 | 0.00 | 68 | 1018.7 |
| 20260903143327 | 93 | 263 | 0.9 | 3.5 | 0.00 | 0.00 | 0.00 | 70 | 1018.7 |
| 20260903142347 | 92 | 252 | 1.7 | 3.5 | 0.00 | 0.00 | 0.00 | 69 | 1018.6 |
| 20260903141339 | 91 | 225 | 1.7 | 4.3 | 0.00 | 0.00 | 0.00 | 72 | 1018.6 |
| 20260903140309 | 90 | 295 | 2.6 | 7.0 | 0.00 | 0.00 | 0.00 | 72 | 1018.6 |
| 20260903135328 | 90 | 222 | 3.5 | 6.1 | 0.00 | 0.00 | 0.00 | 72 | 1018.5 |
| 20260903134320 | 89 | 237 | 2.6 | 7.0 | 0.00 | 0.00 | 0.00 | 72 | 1018.5 |
| 20260903133317 | 88 | 279 | 2.6 | 7.8 | 0.00 | 0.00 | 0.00 | 74 | 1018.5 |
| 20260903132327 | 88 | 274 | 4.3 | 7.0 | 0.00 | 0.00 | 0.00 | 75 | 1018.6 |
| 20260903131325 | 87 | 244 | 2.6 | 7.8 | 0.00 | 0.00 | 0.00 | 75 | 1018.6 |
| 20260903130316 | 86 | 248 | 5.2 | 8.7 | 0.00 | 0.00 | 0.00 | 78 | 1018.7 |
| 20260903125311 | 85 | 232 | 3.5 | 6.1 | 0.00 | 0.00 | 0.00 | 79 | 1018.7 |
| 20260903124335 | 84 | 233 | 2.6 | 4.3 | 0.00 | 0.00 | 0.00 | 81 | 1018.8 |
| 20260903123309 | 83 | 273 | 1.7 | 4.3 | 0.00 | 0.00 | 0.00 | 83 | 1019.0 |
| 20260903122312 | 82 | 204 | 1.7 | 3.5 | 0.00 | 0.00 | 0.00 | 85 | 1019.0 |
| 20260903121337 | 82 | 207 | 1.7 | 3.5 | 0.00 | 0.00 | 0.00 | 85 | 1018.9 |
| 20260903120330 | 81 | 231 | 1.7 | 3.5 | 0.00 | 0.00 | 0.00 | 86 | 1019.0 |
| 20260903115311 | 81 | 225 | 1.7 | 4.3 | 0.00 | 0.00 | 0.00 | 87 | 1018.9 |
| 20260903114323 | 80 | 248 | 2.6 | 4.3 | 0.00 | 0.00 | 0.00 | 87 | 1018.8 |
| 20260903113342 | 80 | 229 | 1.7 | 2.6 | 0.00 | 0.00 | 0.00 | 88 | 1018.6 |
| 20260903112341 | 80 | 212 | 2.6 | 5.2 | 0.00 | 0.00 | 0.00 | 88 | 1018.6 |
| 20260903111338 | 80 | 227 | 2.6 | 4.3 | 0.00 | 0.00 | 0.00 | 88 | 1018.6 |
| 20260903110320 | 80 | 246 | 1.7 | 3.5 | 0.00 | 0.00 | 0.00 | 88 | 1018.6 |
| 20260903105332 | 80 | 167 | 1.7 | 2.6 | 0.00 | 0.00 | 0.00 | 88 | 1018.6 |
| 20260903104311 | 79 | 192 | 1.7 | 4.3 | 0.00 | 0.00 | 0.00 | 88 | 1018.4 |
| 20260903103331 | 80 | 204 | 1.7 | 4.3 | 0.00 | 0.00 | 0.00 | 88 | 1018.4 |
| 20260903102321 | 80 | 215 | 1.7 | 4.3 | 0.00 | 0.00 | 0.00 | 88 | 1018.2 |
| 20260903101341 | 80 | 198 | 1.7 | 3.5 | 0.00 | 0.00 | 0.00 | 87 | 1018.1 |
| 20260903100341 | 80 | 181 | 2.6 | 2.6 | 0.00 | 0.00 | 0.00 | 87 | 1018.1 |
| 20260903095318 | 80 | 187 | 1.7 | 3.5 | 0.00 | 0.00 | 0.00 | 87 | 1018.1 |
| 20260903094314 | 80 | 194 | 1.7 | 3.5 | 0.00 | 0.00 | 0.00 | 86 | 1018.1 |
| 20260903093352 | 80 | 211 | 1.7 | 2.6 | 0.00 | 0.00 | 0.00 | 86 | 1018.0 |
| 20260903092326 | 80 | 194 | 1.7 | 5.2 | 0.00 | 0.00 | 0.00 | 86 | 1017.9 |
| 20260903091328 | 81 | 178 | 2.6 | 4.3 | 0.00 | 0.00 | 0.00 | 86 | 1017.9 |
| 20260903090324 | 81 | 167 | 2.6 | 3.5 | 0.00 | 0.00 | 0.00 | 86 | 1017.8 |
| 20260903085320 | 81 | 219 | 2.6 | 6.1 | 0.00 | 0.00 | 0.00 | 86 | 1017.8 |
| 20260903084322 | 80 | 201 | 1.7 | 4.3 | 0.00 | 0.00 | 0.00 | 86 | 1017.8 |
| 20260903083316 | 80 | 143 | 1.7 | 4.3 | 0.00 | 0.00 | 0.00 | 86 | 1017.8 |
| 20260903082311 | 80 | 104 | 2.6 | 5.2 | 0.00 | 0.00 | 0.00 | 86 | 1017.7 |
| 20260903081311 | 80 | 190 | 1.7 | 4.3 | 0.00 | 0.00 | 0.00 | 86 | 1017.6 |
| 20260903080327 | 80 | 155 | 1.7 | 4.3 | 0.00 | 0.00 | 0.00 | 86 | 1017.6 |
| 20260903075349 | 81 | 220 | 1.7 | 4.3 | 0.00 | 0.00 | 0.00 | 86 | 1017.6 |
| 20260903074322 | 81 | 136 | 1.7 | 4.3 | 0.00 | 0.00 | 0.00 | 86 | 1017.7 |
| 20260903073322 | 81 | 129 | 1.7 | 4.3 | 0.00 | 0.00 | 0.00 | 86 | 1017.6 |
| 20260903072315 | 81 | 146 | 1.7 | 4.3 | 0.00 | 0.00 | 0.00 | 85 | 1017.7 |
| 20260903071334 | 81 | 181 | 1.7 | 2.6 | 0.00 | 0.00 | 0.00 | 85 | 1017.6 |
| 20260903070349 | 82 | 148 | 1.7 | 3.5 | 0.00 | 0.00 | 0.00 | 85 | 1017.6 |
| 20260903065311 | 82 | 178 | 1.7 | 3.5 | 0.00 | 0.00 | 0.00 | 84 | 1017.4 |
| 20260903064323 | 82 | 160 | 0.9 | 2.6 | 0.00 | 0.00 | 0.00 | 84 | 1017.3 |
| 20260903063326 | 82 | 134 | 1.7 | 3.5 | 0.00 | 0.00 | 0.00 | 83 | 1017.3 |
| 20260903062318 | 83 | 173 | 1.7 | 3.5 | 0.00 | 0.00 | 0.00 | 83 | 1017.3 |
| 20260903061311 | 83 | 82 | 1.7 | 4.3 | 0.00 | 0.00 | 0.00 | 83 | 1017.5 |
| 20260903060328 | 83 | 186 | 0.9 | 2.6 | 0.00 | 0.00 | 0.00 | 82 | 1017.6 |
| 20260903055321 | 83 | 130 | 0.9 | 2.6 | 0.00 | 0.00 | 0.00 | 82 | 1017.6 |
| 20260903054320 | 84 | 108 | 1.7 | 2.6 | 0.00 | 0.00 | 0.00 | 81 | 1017.6 |
| 20260903053315 | 84 | 179 | 1.7 | 3.5 | 0.00 | 0.00 | 0.00 | 81 | 1017.7 |
| 20260903052333 | 84 | 72 | 1.7 | 4.3 | 0.00 | 0.00 | 0.00 | 80 | 1017.7 |
| 20260903051326 | 85 | 157 | 1.7 | 6.1 | 0.00 | 0.00 | 0.00 | 80 | 1017.7 |
| 20260903050327 | 85 | 131 | 3.5 | 6.1 | 0.00 | 0.00 | 0.00 | 80 | 1017.7 |
| 20260903045340 | 85 | 145 | 1.7 | 4.3 | 0.00 | 0.00 | 0.00 | 80 | 1017.7 |
| 20260903044317 | 85 | 194 | 1.7 | 4.3 | 0.00 | 0.00 | 0.00 | 80 | 1017.8 |
| 20260903043311 | 85 | 225 | 2.6 | 5.2 | 0.00 | 0.00 | 0.00 | 80 | 1017.7 |
| 20260903042328 | 86 | 150 | 3.5 | 6.1 | 0.00 | 0.00 | 0.00 | 80 | 1017.7 |
| 20260903041321 | 86 | 76 | 1.7 | 3.5 | 0.00 | 0.00 | 0.00 | 80 | 1017.7 |
| 20260903040313 | 86 | 153 | 2.6 | 5.2 | 0.00 | 0.00 | 0.00 | 79 | 1017.7 |
| 20260903035314 | 86 | 136 | 2.6 | 7.0 | 0.00 | 0.00 | 0.00 | 79 | 1017.8 |
| 20260903034313 | 87 | 179 | 3.5 | 6.1 | 0.00 | 0.00 | 0.00 | 79 | 1017.8 |
| 20260903033333 | 87 | 170 | 2.6 | 5.2 | 0.00 | 0.00 | 0.00 | 79 | 1017.8 |
| 20260903032327 | 87 | 149 | 2.6 | 4.3 | 0.00 | 0.00 | 0.00 | 78 | 1017.8 |
| 20260903031331 | 88 | 127 | 2.6 | 4.3 | 0.00 | 0.00 | 0.00 | 78 | 1017.6 |
| 20260903030346 | 88 | 200 | 1.7 | 6.1 | 0.00 | 0.00 | 0.00 | 77 | 1017.5 |
| 20260903025329 | 88 | 159 | 2.6 | 5.2 | 0.00 | 0.00 | 0.00 | 77 | 1017.3 |
| 20260903024325 | 88 | 146 | 2.6 | 5.2 | 0.00 | 0.00 | 0.00 | 77 | 1017.1 |
| 20260903023348 | 88 | 200 | 2.6 | 7.0 | 0.00 | 0.00 | 0.00 | 76 | 1017.2 |
| 20260903022321 | 88 | 140 | 3.5 | 7.0 | 0.00 | 0.00 | 0.00 | 76 | 1017.1 |
| 20260903021344 | 88 | 142 | 4.3 | 7.8 | 0.00 | 0.00 | 0.00 | 75 | 1017.2 |
| 20260903020338 | 88 | 126 | 6.1 | 7.8 | 0.00 | 0.00 | 0.00 | 74 | 1017.6 |
| 20260903015320 | 88 | 142 | 3.5 | 6.1 | 0.00 | 0.00 | 0.00 | 73 | 1018.0 |
| 20260903014314 | 88 | 152 | 2.6 | 3.5 | 0.00 | 0.00 | 0.00 | 72 | 1018.2 |
| 20260903013315 | 89 | 146 | 0.9 | 2.6 | 0.00 | 0.00 | 0.00 | 72 | 1018.3 |
| 20260903012313 | 89 | 281 | 0.9 | 1.7 | 0.00 | 0.00 | 0.00 | 70 | 1018.4 |
| 20260903011337 | 89 | 80 | 0.9 | 1.7 | 0.00 | 0.00 | 0.00 | 70 | 1018.3 |
| 20260903010339 | 90 | 80 | 0.0 | 1.7 | 0.00 | 0.00 | 0.00 | 69 | 1018.1 |
| 20260903005336 | 90 | 81 | 0.9 | 1.7 | 0.00 | 0.00 | 0.00 | 69 | 1017.9 |
| 20260903004314 | 90 | 188 | 0.9 | 1.7 | 0.00 | 0.00 | 0.00 | 68 | 1017.4 |
| 20260903003310 | 90 | 165 | 0.9 | 2.6 | 0.00 | 0.00 | 0.00 | 69 | 1017.3 |
| 20260903002308 | 90 | 184 | 0.9 | 2.6 | 0.00 | 0.00 | 0.00 | 70 | 1017.2 |
| 20260903001313 | 91 | 180 | 1.7 | 2.6 | 0.00 | 0.00 | 0.00 | 71 | 1017.2 |
| 20260903000312 | 91 | 175 | 0.0 | 1.7 | 0.00 | 0.00 | 0.00 | 70 | 1017.0 |
| 20260902235334 | 92 | 154 | 0.9 | 1.7 | 0.00 | 0.00 | 0.00 | 69 | 1017.0 |
| 20260902234328 | 93 | 86 | 0.9 | 1.7 | 0.00 | 0.00 | 0.00 | 68 | 1017.2 |
| 20260902233335 | 93 | 51 | 0.9 | 0.9 | 0.00 | 0.00 | 0.00 | 67 | 1017.0 |
| 20260902232331 | 94 | 71 | 0.9 | 1.7 | 0.00 | 0.00 | 0.00 | 66 | 1017.0 |
| 20260902231328 | 94 | 101 | 0.0 | 0.9 | 0.00 | 0.00 | 0.00 | 65 | 1017.0 |
| 20260902230331 | 95 | 124 | 0.0 | 2.6 | 0.00 | 0.00 | 0.00 | 65 | 1017.1 |
| 20260902225347 | 97 | 78 | 0.9 | 2.6 | 0.00 | 0.00 | 0.00 | 62 | 1017.0 |
| 20260902224330 | 98 | 61 | 0.9 | 2.6 | 0.00 | 0.00 | 0.00 | 59 | 1017.0 |
| 20260902223323 | 99 | 47 | 0.9 | 3.5 | 0.00 | 0.00 | 0.00 | 57 | 1017.0 |
| 20260902222324 | 100 | 35 | 1.7 | 3.5 | 0.00 | 0.00 | 0.00 | 55 | 1016.9 |
| 20260902221320 | 101 | 9 | 0.9 | 2.6 | 0.00 | 0.00 | 0.00 | 52 | 1016.8 |